Live-Position
3D-Globus wird geladen...
Über Starlink 11567
Group: 3 satellites
Beschreibung wird geladen...
Nächste Überflüge
Passes for default location (London). Set your location on the main map for personalized predictions.
Höhenverlauf
Loading altitude history...
No altitude history available
Zweizeiliger Elementsatz
1 62909U 25027C 26125.37580203 .00249078 00000-0 18795-2 0 9998
2 62909 42.9999 6.3132 0001680 282.3580 77.7099 15.70934750 72063
Epoch: 5. Mai 2026 •
Age: 9 hours
Aktueller Status
Höhe 361.4 km
Geschwindigkeit 7.69 km/s
Subsatellitenpunkt -24.86°S,
86.6°E
Startdatum 8. Feb. 2025
Alter 1.2 years
Typ internet
Startgruppe
Falcon 9 •
Group 12-9 •
21 satellites
Starlink 11552
62907
Starlink 11561 62908
Starlink 11569 62910
Starlink 11537 62911
Starlink 11565 62912
Starlink 11564 62913
Starlink 11566 62914
Starlink 11555 62915
Starlink 11430 62916
Starlink 11560 62917
Starlink 11562 62918
Starlink 11457 62919
Starlink 32921 62920
Starlink 32917 62921
Starlink 32916 62922
Starlink 32905 62923
Starlink 32871 62924
Starlink 32920 62925
Starlink 32922 62926
Starlink 32891 62927
Technische Details
Klassifizierung Payload
Masse 960.00 kg
Trockenmasse 910.00 kg
Gesamtmasse 960.00 kg
Länge 0.30 m
Durchmesser 4.10 m
Spannweite 29.00 m
Form Box + pan
Hersteller SPXS
Bus-Typ Starlink V2MD
Phasenstatus In Orbit
Besitzer/Staat SPXS/US
Most Searched
Loading...